GW4906 Weather Reports


time (UTC)temp
C
wind
direction
speed
KPH
gust
KPH
rain 1hr
cm
rain 24hr
cm
rain mn
cm
humidity
%
barometer
mb
20260506034011 11 300 4.8 20.9 0.00 0.00 0.00 67 1016.3
20260506033513 11 284 11.3 20.9 0.00 0.00 0.00 65 1016.3
20260506033038 12 277 9.7 19.3 0.00 0.00 0.00 63 1016.3
20260506032515 12 311 4.8 12.9 0.00 0.00 0.00 63 1016.3
20260506032017 12 300 3.2 12.9 0.00 0.00 0.00 65 1016.3
20260506031536 12 270 6.4 11.3 0.00 0.00 0.00 63 1016.2
20260506031016 13 281 4.8 14.5 0.00 0.00 0.00 62 1016.3
20260506030514 13 294 8.0 19.3 0.00 0.00 0.00 60 1016.0
20260506030054 13 286 9.7 19.3 0.00 0.00 0.00 60 1016.0
20260506025514 13 273 11.3 19.3 0.00 0.00 0.00 59 1015.8
20260506025017 13 288 11.3 22.5 0.00 0.00 0.00 59 1016.2
20260506024542 13 281 11.3 24.1 0.00 0.00 0.00 58 1016.1
20260506024015 13 292 14.5 25.7 0.00 0.00 0.00 57 1016.0
20260506023515 14 274 16.1 25.7 0.00 0.00 0.00 55 1015.9
20260506023035 15 288 9.7 19.3 0.00 0.00 0.00 57 1016.0
20260506022514 15 281 11.3 20.9 0.00 0.00 0.00 56 1016.0
20260506022014 14 274 12.9 25.7 0.00 0.00 0.00 56 1016.0
20260506021537 15 279 16.1 25.7 0.00 0.00 0.00 55 1015.9
20260506021011 15 298 11.3 24.1 0.00 0.00 0.00 56 1015.8
20260506020517 15 273 14.5 27.4 0.00 0.00 0.00 54 1015.8
20260506020035 15 290 14.5 27.4 0.00 0.00 0.00 52 1015.8
20260506015517 15 289 14.5 24.1 0.00 0.00 0.00 51 1015.6
20260506015015 15 294 12.9 25.7 0.00 0.00 0.00 52 1015.5
20260506014543 16 289 12.9 24.1 0.00 0.00 0.00 52 1015.5
20260506014012 16 300 12.9 22.5 0.00 0.00 0.00 52 1015.5
20260506013515 16 290 12.9 22.5 0.00 0.00 0.00 52 1015.5
20260506013032 16 300 11.3 24.1 0.00 0.00 0.00 51 1015.4
20260506012513 16 282 12.9 24.1 0.00 0.00 0.00 50 1015.4
20260506012013 16 271 11.3 22.5 0.00 0.00 0.00 53 1015.4
20260506011538 15 259 11.3 25.7 0.00 0.00 0.00 53 1015.4
20260506011015 16 296 16.1 22.5 0.00 0.00 0.00 53 1015.4
20260506010515 15 281 12.9 27.4 0.00 0.00 0.00 55 1015.5
20260506010045 16 274 16.1 29.0 0.00 0.00 0.00 53 1015.4
20260506005515 15 316 16.1 29.0 0.00 0.00 0.00 54 1015.4
20260506005011 15 280 17.7 30.6 0.00 0.00 0.00 55 1015.3
20260506004546 15 314 20.9 30.6 0.00 0.00 0.00 53 1015.3
20260506004015 16 294 19.3 29.0 0.00 0.00 0.00 52 1015.5
20260506003515 16 276 14.5 27.4 0.00 0.00 0.00 54 1015.5
20260506003040 16 292 19.3 27.4 0.00 0.00 0.00 52 1015.4
20260506002513 17 293 19.3 27.4 0.00 0.00 0.00 52 1015.4
20260506002019 17 278 16.1 32.2 0.00 0.00 0.00 52 1015.6
20260506001543 17 290 17.7 32.2 0.00 0.00 0.00 51 1015.5
20260506001014 17 288 20.9 29.0 0.00 0.00 0.00 49 1015.5
20260506000516 18 271 19.3 27.4 0.00 0.00 0.00 49 1015.3
20260506000038 18 291 17.7 27.4 0.00 0.00 0.00 49 1015.3
20260505235514 19 306 17.7 25.7 0.00 0.00 0.00 49 1015.3
20260505235013 19 293 8.0 19.3 0.00 0.00 0.00 51 1015.4
20260505234535 18 317 4.8 16.1 0.00 0.00 0.00 51 1015.4
20260505234016 17 282 1.6 12.9 0.00 0.00 0.00 55 1015.4
20260505233518 16 273 4.8 12.9 0.00 0.00 0.00 57 1015.2
20260505233032 16 236 4.8 14.5 0.00 0.00 0.00 61 1015.3
20260505232516 15 253 6.4 20.9 0.00 0.00 0.00 62 1015.4
20260505232013 15 271 12.9 20.9 0.00 0.00 0.00 59 1015.3
20260505231532 16 277 14.5 20.9 0.00 0.00 0.00 57 1015.3
20260505231014 16 269 12.9 19.3 0.00 0.00 0.00 57 1015.4
20260505230514 15 273 9.7 17.7 0.00 0.00 0.00 55 1015.4
20260505230046 16 267 9.7 16.1 0.00 0.00 0.00 57 1015.2
20260505225515 16 288 9.7 19.3 0.00 0.00 0.00 57 1015.3
20260505225020 16 270 11.3 24.1 0.00 0.00 0.00 54 1015.2
20260505224537 16 274 17.7 24.1 0.00 0.00 0.00 54 1015.2
20260505224015 16 288 16.1 25.7 0.00 0.00 0.00 55 1015.4
20260505223514 16 283 17.7 29.0 0.00 0.00 0.00 54 1015.4
20260505223035 16 303 19.3 30.6 0.00 0.00 0.00 55 1015.4
20260505222519 16 279 17.7 33.8 0.00 0.00 0.00 56 1015.3
20260505222015 16 263 19.3 29.0 0.00 0.00 0.00 56 1015.2
20260505221533 16 290 16.1 29.0 0.00 0.00 0.00 57 1015.0
20260505221016 16 287 20.9 27.4 0.00 0.00 0.00 55 1015.2
20260505220514 16 299 19.3 27.4 0.00 0.00 0.00 55 1015.1
20260505220041 16 302 14.5 27.4 0.00 0.00 0.00 58 1014.9
20260505215516 16 273 17.7 25.7 0.00 0.00 0.00 56 1014.9
20260505215017 16 269 16.1 25.7 0.00 0.00 0.00 56 1015.0
20260505214536 16 292 14.5 27.4 0.00 0.00 0.00 58 1015.1
20260505214016 16 282 16.1 27.4 0.00 0.00 0.00 57 1015.1
20260505213520 16 286 19.3 27.4 0.00 0.00 0.00 56 1015.0
20260505213043 16 275 19.3 27.4 0.00 0.00 0.00 56 1015.1
20260505212516 16 267 17.7 25.7 0.00 0.00 0.00 55 1015.0
20260505212016 16 291 14.5 25.7 0.00 0.00 0.00 57 1015.0
20260505211541 16 276 16.1 22.5 0.00 0.00 0.00 55 1015.0
20260505211017 17 273 14.5 22.5 0.00 0.00 0.00 55 1015.1
20260505210518 17 283 12.9 20.9 0.00 0.00 0.00 55 1015.1
20260505210033 17 274 14.5 24.1 0.00 0.00 0.00 54 1014.9
20260505205522 17 274 16.1 24.1 0.00 0.00 0.00 54 1014.9
20260505205017 17 273 14.5 24.1 0.00 0.00 0.00 55 1014.7
20260505204535 16 296 14.5 24.1 0.00 0.00 0.00 57 1014.7
20260505204017 17 276 11.3 24.1 0.00 0.00 0.00 57 1014.7
20260505203517 17 286 14.5 22.5 0.00 0.00 0.00 54 1014.7
20260505203044 17 269 11.3 22.5 0.00 0.00 0.00 57 1014.8
20260505202516 17 263 9.7 20.9 0.00 0.00 0.00 56 1014.7
20260505202017 17 267 9.7 20.9 0.00 0.00 0.00 55 1014.7
20260505201536 17 254 8.0 17.7 0.00 0.00 0.00 55 1014.7
20260505201016 17 234 8.0 14.5 0.00 0.00 0.00 55 1014.6
20260505200518 17 232 4.8 11.3 0.00 0.00 0.00 55 1014.6
20260505200051 17 274 4.8 14.5 0.00 0.00 0.00 55 1014.6
20260505195523 17 243 4.8 12.9 0.00 0.00 0.00 54 1014.6
20260505195020 17 293 4.8 14.5 0.00 0.00 0.00 53 1014.6
20260505194548 17 269 9.7 16.1 0.00 0.00 0.00 53 1014.6
20260505194019 17 286 8.0 16.1 0.00 0.00 0.00 54 1014.6
20260505193522 17 267 4.8 12.9 0.00 0.00 0.00 56 1014.5
20260505193110 17 286 6.4 12.9 0.00 0.00 0.00 58 1014.5
20260505192518 17 260 6.4 16.1 0.00 0.00 0.00 57 1014.5
20260505192021 16 292 6.4 16.1 0.00 0.00 0.00 59 1014.5
20260505191542 16 280 6.4 16.1 0.00 0.00 0.00 58 1014.4
20260505191021 17 263 8.0 16.1 0.00 0.00 0.00 58 1014.4
20260505190519 17 277 9.7 17.7 0.00 0.00 0.00 55 1014.5
20260505190048 17 269 9.7 17.7 0.00 0.00 0.00 58 1014.4
20260505185519 17 304 9.7 17.7 0.00 0.00 0.00 57 1014.3
20260505185023 17 284 11.3 17.7 0.00 0.00 0.00 57 1014.2
20260505184542 16 298 11.3 17.7 0.00 0.00 0.00 58 1014.1
20260505184021 16 283 11.3 17.7 0.00 0.00 0.00 58 1014.1
20260505183521 16 285 9.7 14.5 0.00 0.00 0.00 60 1014.1
20260505183054 16 284 11.3 14.5 0.00 0.00 0.00 61 1014.0
20260505182518 16 297 9.7 16.1 0.00 0.00 0.00 59 1014.2
20260505182018 16 296 11.3 14.5 0.00 0.00 0.00 58 1014.0
20260505181541 17 281 9.7 14.5 0.00 0.00 0.00 57 1013.9
20260505181019 17 309 8.0 14.5 0.00 0.00 0.00 60 1013.9
20260505180521 16 285 3.2 6.4 0.00 0.00 0.00 62 1013.7
20260505180051 16 291 3.2 11.3 0.00 0.00 0.00 62 1013.6
20260505175517 16 286 4.8 11.3 0.00 0.00 0.00 63 1013.7
20260505175016 15 273 3.2 9.7 0.00 0.00 0.00 65 1013.7
20260505174543 15 242 3.2 6.4 0.00 0.00 0.00 63 1013.8
20260505174020 15 273 1.6 4.8 0.00 0.00 0.00 65 1013.7
20260505173525 14 273 1.6 9.7 0.00 0.00 0.00 66 1013.6
20260505173046 13 273 3.2 11.3 0.00 0.00 0.00 67 1013.7
20260505172517 13 271 6.4 12.9 0.00 0.00 0.00 68 1013.6
20260505172019 13 280 8.0 12.9 0.00 0.00 0.00 69 1013.5
20260505171547 13 281 6.4 12.9 0.00 0.00 0.00 70 1013.4
20260505171021 14 280 8.0 12.9 0.00 0.00 0.00 68 1013.6
20260505170520 14 294 9.7 12.9 0.00 0.00 0.00 67 1013.4
20260505170046 14 284 4.8 11.3 0.00 0.00 0.00 68 1013.3
20260505165519 14 280 4.8 11.3 0.00 0.00 0.00 66 1013.2
20260505165019 14 269 4.8 9.7 0.00 0.00 0.00 65 1013.2
20260505164543 14 269 1.6 6.4 0.00 0.00 0.00 67 1013.3
20260505164017 14 269 3.2 9.7 0.00 0.00 0.00 64 1013.1
20260505163519 15 269 4.8 9.7 0.00 0.00 0.00 66 1013.2
20260505163045 14 269 4.8 6.4 0.00 0.00 0.00 66 1013.1
20260505162523 14 269 0.0 4.8 0.00 0.00 0.00 69 1013.0
20260505162022 14 269 1.6 6.4 0.00 0.00 0.00 67 1012.9
20260505161559 14 269 3.2 9.7 0.00 0.00 0.00 66 1012.9
20260505161018 14 269 4.8 9.7 0.00 0.00 0.00 67 1012.7
20260505160523 14 269 4.8 6.4 0.00 0.00 0.00 66 1012.9
20260505153056 14 184 0.0 0.0 0.00 0.00 0.00 68 1012.4
20260505152520 13 184 0.0 0.0 0.00 0.00 0.00 70 1012.3
20260505152029 13 266 0.0 3.2 0.00 0.00 0.00 71 1012.3
20260505151554 13 266 0.0 3.2 0.00 0.00 0.00 72 1012.4
20260505151021 12 266 0.0 3.2 0.00 0.00 0.00 70 1012.4
20260505150518 12 266 0.0 3.2 0.00 0.00 0.00 71 1012.4
20260505140519 11 167 11.3 16.1 0.00 0.00 0.00 75 1011.9
20260505125024 13 114 8.0 12.9 0.00 0.00 0.00 59 1011.2
20260505124557 13 128 1.6 11.3 0.00 0.00 0.00 61 1011.2
20260505124016 13 120 6.4 12.9 0.00 0.00 0.00 64 1011.1
20260505123520 13 117 9.7 11.3 0.00 0.00 0.00 63 1011.0
20260505123109 13 114 1.6 6.4 0.00 0.00 0.00 62 1011.0
20260505122519 13 78 1.6 8.0 0.00 0.00 0.00 63 1011.1
20260505122233 13 78 1.6 11.3 0.00 0.00 0.00 61 1011.1
20260505121532 13 82 8.0 12.9 0.00 0.00 0.00 62 1011.1
20260505121013 13 115 9.7 12.9 0.00 0.00 0.00 63 1011.1
20260505120512 13 113 9.7 14.5 0.00 0.00 0.00 64 1011.1
20260505120039 13 113 11.3 14.5 0.00 0.00 0.00 65 1011.1
20260505115510 13 114 12.9 14.5 0.00 0.00 0.00 66 1011.0
20260505115009 13 123 9.7 14.5 0.00 0.00 0.00 64 1011.1
20260505114527 13 175 8.0 9.7 0.00 0.00 0.00 67 1011.2
20260505114012 13 163 6.4 11.3 0.00 0.00 0.00 63 1011.2
20260505113511 13 146 6.4 11.3 0.00 0.00 0.00 62 1011.2
20260505113029 13 154 6.4 11.3 0.00 0.00 0.00 62 1011.1
20260505112511 14 157 6.4 11.3 0.00 0.00 0.00 62 1011.1
20260505112011 14 144 8.0 11.3 0.00 0.00 0.00 63 1011.1
20260505111532 14 111 4.8 9.7 0.00 0.00 0.00 62 1011.1
20260505111011 14 111 4.8 6.4 0.00 0.00 0.00 64 1011.0
20260505110511 14 111 4.8 6.4 0.00 0.00 0.00 63 1011.1
20260505102013 14 111 3.2 4.8 0.00 0.00 0.00 61 1011.0
20260505101534 14 111 0.0 3.2 0.00 0.00 0.00 61 1011.0
20260505101014 14 111 0.0 6.4 0.00 0.00 0.00 59 1011.1
20260505100513 14 110 3.2 6.4 0.00 0.00 0.00 59 1011.1
20260505100031 14 350 1.6 3.2 0.00 0.00 0.00 59 1011.0
20260505095510 14 350 0.0 4.8 0.00 0.00 0.00 60 1011.1
20260505095012 14 350 0.0 6.4 0.00 0.00 0.00 60 1011.1
20260505094531 14 350 3.2 6.4 0.00 0.00 0.00 60 1011.3
20260505094012 14 350 0.0 8.0 0.00 0.00 0.00 59 1011.2
20260505093512 15 350 4.8 8.0 0.00 0.00 0.00 59 1011.2
20260505093031 15 304 1.6 8.0 0.00 0.00 0.00 57 1011.2
20260505092513 15 155 3.2 11.3 0.00 0.00 0.00 55 1011.1
20260505092014 15 174 6.4 14.5 0.00 0.00 0.00 55 1011.0
20260505091533 15 147 6.4 16.1 0.00 0.00 0.00 55 1011.1
20260505091011 15 119 9.7 16.1 0.00 0.00 0.00 54 1010.6
20260505090513 16 150 6.4 11.3 0.00 0.00 0.00 54 1011.0
20260505090030 16 140 3.2 6.4 0.00 0.00 0.00 54 1011.0
20260505085511 16 140 0.0 1.6 0.00 0.00 0.00 54 1011.0
20260505085013 16 140 0.0 3.2 0.00 0.00 0.00 53 1010.9
20260505084544 16 140 0.0 3.2 0.00 0.00 0.00 54 1010.9
20260505084012 16 140 0.0 6.4 0.00 0.00 0.00 53 1011.0
20260505083511 17 140 3.2 6.4 0.00 0.00 0.00 51 1010.9
20260505083046 17 140 3.2 6.4 0.00 0.00 0.00 48 1010.8
20260505082513 17 315 0.0 3.2 0.00 0.00 0.00 48 1010.8
20260505082013 17 315 0.0 6.4 0.00 0.00 0.00 45 1010.7
20260505081541 17 315 3.2 6.4 0.00 0.00 0.00 45 1010.7
20260505081014 17 66 3.2 4.8 0.00 0.00 0.00 46 1010.7
20260505080512 17 66 0.0 3.2 0.00 0.00 0.00 46 1010.7
20260505080044 17 66 0.0 4.8 0.00 0.00 0.00 46 1010.7
20260505075514 17 66 0.0 8.0 0.00 0.00 0.00 47 1010.7
20260505075011 17 66 4.8 8.0 0.00 0.00 0.00 49 1010.7
20260505074535 17 52 3.2 8.0 0.00 0.00 0.00 50 1010.7
20260505074014 17 31 3.2 6.4 0.00 0.00 0.00 49 1010.8
20260505073512 17 26 3.2 6.4 0.00 0.00 0.00 49 1010.8
20260505073045 16 101 1.6 9.7 0.00 0.00 0.00 50 1010.8
20260505072513 16 90 4.8 12.9 0.00 0.00 0.00 52 1010.8
20260505072011 16 71 8.0 12.9 0.00 0.00 0.00 55 1011.0
20260505071544 17 64 8.0 12.9 0.00 0.00 0.00 53 1011.0
20260505071013 17 65 6.4 12.9 0.00 0.00 0.00 50 1011.1
20260505070515 17 58 3.2 8.0 0.00 0.00 0.00 50 1011.1
20260505070042 18 30 4.8 12.9 0.00 0.00 0.00 49 1011.1
20260505065513 18 28 8.0 12.9 0.00 0.00 0.00 47 1011.0
20260505065014 18 30 6.4 9.7 0.00 0.00 0.00 48 1011.0
20260505064535 18 19 6.4 11.3 0.00 0.00 0.00 48 1011.0
20260505064011 18 24 4.8 8.0 0.00 0.00 0.00 47 1010.9
20260505063513 18 49 4.8 9.7 0.00 0.00 0.00 46 1011.0
20260505063039 18 11 6.4 9.7 0.00 0.00 0.00 47 1010.9
20260505062513 18 86 0.0 6.4 0.00 0.00 0.00 45 1011.0
20260505062013 18 86 1.6 9.7 0.00 0.00 0.00 46 1011.0
20260505061532 18 86 4.8 11.3 0.00 0.00 0.00 47 1011.0
20260505061014 17 86 6.4 11.3 0.00 0.00 0.00 49 1011.0
20260505060514 17 67 6.4 8.0 0.00 0.00 0.00 52 1010.9
20260505060052 17 59 3.2 9.7 0.00 0.00 0.00 51 1011.0
20260505055512 17 29 6.4 14.5 0.00 0.00 0.00 51 1011.1
20260505055014 17 16 8.0 14.5 0.00 0.00 0.00 52 1011.1
20260505054537 17 15 11.3 14.5 0.00 0.00 0.00 54 1011.1
20260505054017 16 17 9.7 14.5 0.00 0.00 0.00 56 1010.9
20260505053513 16 21 8.0 14.5 0.00 0.00 0.00 57 1010.9
20260505053038 16 58 9.7 14.5 0.00 0.00 0.00 57 1011.0
20260505052512 17 343 3.2 11.3 0.00 0.00 0.00 56 1011.0
20260505052012 17 20 6.4 11.3 0.00 0.00 0.00 54 1011.0
20260505051532 18 55 6.4 9.7 0.00 0.00 0.00 52 1011.0
20260505051013 19 57 4.8 9.7 0.00 0.00 0.00 49 1010.8
20260505050514 19 49 1.6 6.4 0.00 0.00 0.00 47 1010.9
20260505041545 18 38 6.4 12.9 0.00 0.00 0.00 49 1011.1
20260505041012 18 23 8.0 14.5 0.00 0.00 0.00 49 1011.2
20260505040517 18 34 8.0 14.5 0.00 0.00 0.00 50 1011.2
20260505040034 18 42 9.7 14.5 0.00 0.00 0.00 50 1011.1
20260505035513 19 32 8.0 17.7 0.00 0.00 0.00 48 1011.2
20260505035011 19 18 9.7 17.7 0.00 0.00 0.00 46 1011.1
20260505034532 19 11 11.3 17.7 0.00 0.00 0.00 47 1011.1